TITAN 3C TRANSTAGE DEB, 1859

Orbit data source: Space-Track

TITAN 3C TRANSTAGE DEB, 1859 is space debris in LEO originally from a launch on Fri, 15 Oct 1965 UTC launched from the Air Force Eastern Test Range (AFETR). Debris objects in space refer to the collection of defunct objects orbiting the Earth. Examples of debris include non-operational satellites, rocket bodies, and fragments generated from explosions, collisions, or faulty payload assembly.

Loading next visibility...
Identifier
1859, 1965-082ES
Orbit
LEO
Last TLE update
11 hours ago
Origin
Manufacturer
Unknown
Mission
Spacecraft
Bus & Motor
Unknown
Mass
Unknown
Launch date (UTC)
1965-10-15 (60 years ago)
Launch vehicle
Unknown
Launch site
Air Force Eastern Test Range (AFETR)
Object type
Payload
Rocket body
Debris
Shape & HBR
Unknown
Radar Cross Section
Medium (>0.1 m² and <1 m²)

Expand to show TLE details & history

TLE from 11 hours ago
0 TITAN 3C TRANSTAGE DEB
1 01859U 65082ES  25189.81571691  .00000454  00000-0  10594-3 0  9992
2 01859  32.1278 353.7727 0067487 216.6820 142.9188 14.48637806137235
Epoch: 2025-07-08T19:34Z
TLE epoch observation values (Epoch: 2025-07-08T19:34:37.941Z)
Latitude
-0.00002°
Longitude
133.1093°
Altitude
767.137 km
Speed
7.453 km/s
True Right ascension
23h 35m 05s
True Declination
0° 00' 00"
Sunlit
Object was in daylight at epoch
Visualization orbit readout
Latitude
-21.23102°
Longitude
92.38916°
Altitude
738.957 km
Speed
7.484 km/s
Apparent Right ascension
23h 48m 25s
Apparent Declination
-64° 46' 10"
Sunlit
Object is in full shadow
Visualization observer readout
Local Sidereal Time
19:06:51
Azimuth
152.927° SSE
Elevation
-28.083°
Doppler factor
1
Orbital elements
Apogee altitude
781.67 km
Perigee altitude
685.679 km
Semi-major axis
7,111.811 km
Eccentricity
0.00675
Inclination
32.1278°
RAAN
353.7727°
Arg. of periapsis
216.682°
True anomaly
Unknown
Mean anomaly
142.9188°
Eccentric anomaly
Unknown
Mean motion
3.61887 °/min
Orbital period
99.48 mins
BSTAR
0.00010594
Loading maneuver chart data...
Loading SW <> Apogee altitude chart data...

TITAN 3C TRANSTAGE DEB Visibility forecast

Observer location: undefined°, undefined°

Span
Click to sort rows by Start time (UTC) header in descending order
Start Az.
Max El. time (UTC)
Max El. Az.
Max El.
End time (UTC)
End Az.
5 mins2025-07-09 13:59:25.988Z181.585° SSW2025-07-09 14:01:25.988Z157.656° S15.212°2025-07-09 14:04:25.988Z122.653° SE
7 mins2025-07-09 15:43:25.988Z216.461° SW2025-07-09 15:46:25.988Z167.247° S27.24°2025-07-09 15:50:25.988Z112.152° ESE
8 mins2025-07-09 17:27:25.988Z242.975° WSW2025-07-09 17:31:25.988Z180.585° SSW29.86°2025-07-09 17:35:25.988Z123.27° SE
6 mins2025-07-09 19:13:25.988Z236.817° WSW2025-07-09 19:16:25.988Z193.467° SSW20.657°2025-07-09 19:19:25.988Z154.404° SSE
|